Weather History for Beaufort MCAS, SC

Change the Weather History Date:

Tuesday, April 17, 2012

  Actual Average Record
Temperature  
Mean Temperature 72 °F -  
Max Temperature 84 °F 77 °F 89 °F (1967)
Min Temperature 60 °F 54 °F 37 °F (1950)
Cooling Degree Days 7    
Growing Degree Days 22 (Base 50)    
Moisture  
Dew Point 61 °F    
Average Humidity 76    
Maximum Humidity 100    
Minimum Humidity 41    
Precipitation  
Precipitation 0.01 in - - ()
Sea Level Pressure  
Sea Level Pressure 30.17 in    
Wind  
Wind Speed 4 mph (SSW)    
Max Wind Speed 12 mph    
Max Gust Speed 17 mph    
Visibility 7 miles    
Events Fog    
Averages and records for this station are not official NWS values.
T = Trace of Precipitation, MM = Missing Value Source: NWS Daily Summary

Daily Weather History Graph

Daily Weather History Graph

Search for Another Location

Airport:

Trip Planner

Search our weather history database for the weather conditions in past years. The results will help you decide how hot, cold, wet, or windy it might be!

Date:

Astronomy

Apr. 17, 2012 Rise Set
Actual Time 6:50 AM EDT 7:54 PM EDT
Civil Twilight 6:25 AM EDT 8:19 PM EDT
Nautical Twilight 5:55 AM EDT 8:49 PM EDT
Astronomical Twilight 5:24 AM EDT 9:21 PM EDT
Moon 4:36 AM EDT (4/17) 4:55 PM EDT (4/17)
Length of Visible Light 13h 54m
Length of Day
13h 03m
Waning Crescent, 12% of the Moon is Illuminated
Apr 17
Waning Crescent
Apr 21
New
Apr 29
First Quarter
May 5
Full
May 12
Last Quarter

Hourly Weather History & Observations

Time (EDT) Temp. Heat Index Dew Point Humidity Pressure Visibility Wind Dir Wind Speed Gust Speed Precip Events Conditions
12:56 AM 68.0 °F - 63.0 °F 84% 30.18 in 10.0 mi SSW 4.6 mph - N/A   Clear
1:56 AM 66.9 °F - 63.0 °F 87% 30.17 in 10.0 mi SSW 3.5 mph - N/A   Clear
2:56 AM 66.9 °F - 63.0 °F 87% 30.17 in 10.0 mi SSW 3.5 mph - N/A   Clear
3:56 AM 64.0 °F - 61.0 °F 90% 30.17 in 10.0 mi WSW 3.5 mph - N/A   Clear
4:56 AM 64.0 °F - 62.1 °F 93% 30.17 in 10.0 mi Calm Calm - N/A   Clear
5:56 AM 63.0 °F - 61.0 °F 93% 30.18 in 4.0 mi Calm Calm - N/A   Clear
5:59 AM 62.6 °F - 60.8 °F 94% 30.17 in 1.8 mi Calm Calm - N/A   Clear
6:01 AM 62.6 °F - 60.8 °F 94% 30.18 in 1.0 mi Calm Calm - N/A   Clear
6:04 AM 62.6 °F - 60.8 °F 94% 30.18 in 0.5 mi Calm Calm - N/A Fog Fog
6:12 AM 60.8 °F - 60.8 °F 100% 30.18 in 0.5 mi Calm Calm - N/A Fog Fog
6:24 AM 62.6 °F - 60.8 °F 94% 30.19 in 1.0 mi Calm Calm - N/A   Mostly Cloudy
6:36 AM 62.6 °F - 60.8 °F 94% 30.19 in 2.0 mi Calm Calm - N/A Fog Scattered Clouds
6:56 AM 60.1 °F - 59.0 °F 96% 30.20 in 1.5 mi Calm Calm - N/A Fog Scattered Clouds
7:32 AM 62.6 °F - 60.8 °F 94% 30.21 in 2.0 mi Calm Calm - 0.01 in Fog Scattered Clouds
7:41 AM 62.6 °F - 60.8 °F 94% 30.21 in 3.0 mi Calm Calm - 0.01 in Fog Scattered Clouds
7:56 AM 64.0 °F - 62.1 °F 93% 30.21 in 5.0 mi Calm Calm - 0.01 in Fog Scattered Clouds
8:56 AM 69.1 °F - 64.0 °F 84% 30.22 in 10.0 mi WSW 5.8 mph - N/A   Scattered Clouds
9:56 AM 73.0 °F - 62.1 °F 68% 30.22 in 10.0 mi SW 9.2 mph 16.1 mph N/A   Mostly Cloudy
10:56 AM 77.0 °F - 61.0 °F 58% 30.22 in 10.0 mi SW 9.2 mph - N/A   Mostly Cloudy
11:56 AM 80.1 °F 81.1 °F 61.0 °F 52% 30.20 in 10.0 mi SW 8.1 mph - N/A   Scattered Clouds
12:56 PM 84.0 °F 84.4 °F 61.0 °F 46% 30.18 in 10.0 mi SE 5.8 mph - N/A   Scattered Clouds
1:56 PM 84.0 °F 83.5 °F 57.9 °F 41% 30.16 in 10.0 mi Variable 3.5 mph - N/A   Scattered Clouds
2:56 PM 82.0 °F 83.0 °F 62.1 °F 51% 30.14 in 10.0 mi SSE 11.5 mph 17.3 mph N/A   Mostly Cloudy
3:56 PM 81.0 °F 81.7 °F 61.0 °F 50% 30.12 in 10.0 mi SSE 8.1 mph 17.3 mph N/A   Scattered Clouds
4:56 PM 81.0 °F 81.1 °F 57.9 °F 45% 30.11 in 10.0 mi SSW 11.5 mph 17.3 mph N/A   Clear
5:56 PM 79.0 °F - 57.9 °F 48% 30.10 in 10.0 mi SSW 6.9 mph - N/A   Clear
6:56 PM 77.0 °F - 55.9 °F 48% 30.09 in 10.0 mi SSW 9.2 mph - N/A   Clear
7:56 PM 73.9 °F - 59.0 °F 59% 30.10 in 10.0 mi South 5.8 mph - N/A   Clear
8:56 PM 72.0 °F - 59.0 °F 64% 30.11 in 10.0 mi SSW 5.8 mph - N/A   Clear
9:56 PM 70.0 °F - 61.0 °F 73% 30.12 in 10.0 mi South 4.6 mph - N/A   Clear
10:56 PM 69.1 °F - 63.0 °F 81% 30.12 in 10.0 mi SSW 5.8 mph - N/A   Clear
11:56 PM 69.1 °F - 63.0 °F 81% 30.12 in 10.0 mi South 3.5 mph - N/A   Clear